Location: Kaiser
(34.0939°N, 117.4889°W)
Time: 22:01:34
(UTC+00:00)

Meteor 1-24 Rocket - Pass Details

Date: 29 October 2020
Orbit: 791 x 926 km, 81.3° (Epoch: 25 November)

Event Time Altitude Azimuth Distance (km) Brightness Sun altitude
Rises 12:05:52 0° 182° (S) 3,355 6.8 -25.7°
Reaches altitude 10° 12:08:14 10° 181° (S) 2,444 6.1 -25.2°
Maximum altitude 12:13:46 76° 96° (E) 889 3.8 -24.1°
Drops below altitude 10° 12:19:33 10° 12° (NNE) 2,552 6.3 -22.9°
Sets 12:22:03 0° 11° (N) 3,514 7.0 -22.3°
